OpenBCM V1.08-3-g9b42 (Linux)

Packet Radio Mailbox

OK0NBR

[Sao_Jose_dos_Campo]

 Login: GUEST





  
I0OJJ  > KEPS     21.12.25 23:07l 325 Lines 15462 Bytes #294 (0) @ AMSAT
BID : ORB25356.1
Read: GUEST
Subj: 2Line Orbital Elements 25356.AMSAT
Path: OK0NBR<SR1BSZ<EA2RCF<I0OJJ
Sent: 251222/0021z @:I0OJJ.ITA.EU [Rome] obcm1.08-11-2-gbfe9
From: I0OJJ @ I0OJJ.ITA.EU (Gustavo)
To:   KEPS @ AMSAT
X-Info: This message was generated automatically


QST de W1STR

AMSAT Orbital Elements for Amateur Satellites in TLE Format
From Orbital Analysis Office
New England Sci-Tech STEM Education Center
Natick MA December 22, 2025
To all radio amateurs


These element sets describe the orbits of various satellites 
in use by the amateur radio community. For details see:
www.amsat.org/keplerian-elements-formats/

A daily update of element sets is available at:
www.amsat.org/tle/daily-bulletin.txt
or without bulletin text:
www.amsat.org/tle/dailytle.txt


AO-07
1 07530U 74089B   25355.52704521 -.00000045  00000-0  11333-4 0  9994
2 07530 101.9964   1.8870 0012392 110.0689  15.0008 12.53694407338259
UO-11
1 14781U 84021B   25355.79126411  .00001341  00000-0  14415-3 0  9994
2 14781  97.7824 318.6796 0009008  56.8832 303.3249 14.90169384230700
AO-27
1 22825U 93061C   25355.73949906  .00000105  00000-0  56961-4 0  9992
2 22825  98.7133  58.0277 0007328 259.3870 100.6488 14.30879833681621
FO-29
1 24278U 96046B   25355.86727564 -.00000018  00000-0  17940-4 0  9998
2 24278  98.5457 223.7773 0349566 196.2681 162.7005 13.53262985449181
GO-32
1 25397U 98043D   25355.83868157  .00000053  00000-0  42995-4 0  9997
2 25397  98.9930 339.2611 0001773  42.7130 317.4186 14.24379411426082
ISS
1 25544U 98067A   25355.56954477  .00009066  00000-0  16837-3 0  9996
2 25544  51.6324  98.7522 0003166 281.5679  78.4955 15.49703708544229
NO-44
1 26931U 01043C   25355.39762647  .00000150  00000-0  87006-4 0  9994
2 26931  67.0515 344.0883 0007409 269.4934  90.5318 14.31859368264998
SO-50
1 27607U 02058C   25355.37305857  .00001586  00000-0  20695-3 0  9990
2 27607  64.5532 318.9146 0072609 294.9522  64.4051 14.82424428238099
CO-55
1 27844U 03031E   25355.51243991  .00000289  00000-0  14448-3 0  9999
2 27844  98.6762   1.3023 0009318 348.0536  12.0420 14.24186288166381
CO-57
1 27848U 03031J   25355.48321956  .00000242  00000-0  12552-3 0  9990
2 27848  98.6791   1.1285 0009558   6.3588 353.7710 14.23493324166098
RS-22
1 27939U 03042A   25355.89483475  .00001474  00000-0  23757-3 0  9990
2 27939  98.3360 170.3381 0012408 108.6924  27.6837 14.72994725189448
CO-58
1 28895U 05043F   25355.34693506  .00001364  00000-0  22568-3 0  9990
2 28895  98.2730 142.5706 0015112  52.6082 307.6498 14.71929307 75586
CO-65
1 32785U 08021C   25351.68477250  .00005656  00000-0  38073-3 0  9997
2 32785  97.8081 324.8433 0007829 290.5969  69.4418 15.07103756957832
CO-66
1 32791U 08021J   25355.69369991  .00014590  00000-0  57789-3 0  9993
2 32791  97.7451 341.1485 0002428 167.5699 192.5598 15.25528377960168
RS-30
1 32953U 08025A   25355.80465144  .00000033  00000-0  16811-3 0  9995
2 32953  82.5033 105.7858 0018696 340.9595  19.0783 12.43172103797650
SRMSAT
1 37841U 11058D   25355.49692175  .00000394  00000-0  70306-4 0  9997
2 37841  19.9726  54.9508 0011965  49.5052 340.4100 14.11514217732682
ZACUBE-1
1 39417U 13066B   25351.39749824  .00003280  00000-0  27002-3 0  9999
2 39417  97.8056 307.9496 0042001 132.1904 228.2897 14.99124350653477
Delfi-N3xt
1 39428U 13066N   25355.72877906  .00006869  00000-0  64222-3 0  9996
2 39428  97.8356 271.5758 0081090  76.2459 284.7768 14.91941480648137
GOMX-1
1 39430U 13066Q   25355.82705476  .00002166  00000-0  33633-3 0  9990
2 39430  97.6580 202.3843 0129168 287.2383  71.4721 14.68626438643876
LO-74
1 39440U 13066AA  25351.56788106  .00003439  00000-0  33426-3 0  9993
2 39440  97.8708 295.2332 0058016 269.4523  90.0047 14.92015584649893
AO-73
1 39444U 13066AE  25355.62460839  .00006591  00000-0  44695-3 0  9990
2 39444  97.8081 319.0128 0041168  87.0001 273.5935 15.06088568652902
DTUSAT-2
1 40030U 14033W   25351.70002679  .00007073  00000-0  41774-3 0  9998
2 40030  98.0754 333.4459 0009697 125.2587 234.9550 15.11812878625232
EO-80
1 40032U 14033Y   25355.68132627  .00006837  00000-0  40239-3 0  9990
2 40032  98.0649 337.0325 0009775  65.1287 295.0957 15.11953661625814
LILACSAT-2
1 40908U 15049K   25355.80444385  .00013824  00000-0  29492-3 0  9993
2 40908  97.4896  21.4665 0008207 163.9397 196.2113 15.44975222568301
IO-86
1 40931U 15052B   25151.18580175  .00001241  00000-0  78118-4 0  9996
2 40931   6.0006  24.0987 0012733 338.8432  21.1169 14.78805930523159
Horyu-4
1 41340U 16012D   25355.82117028  .00044089  00000-0  71724-3 0  9990
2 41340  30.9932 247.5913 0006803 322.2904  37.7268 15.51372865542962
Lapan A3
1 41603U 16040E   25355.84157289  .00003501  00000-0  11699-3 0  9997
2 41603  97.1426 353.0666 0008838 296.6618  63.3719 15.31619533527650
CAS-2T
1 41847U 16066G   25355.76849122  .00000896  00000-0  13667-3 0  9991
2 41847  98.4026  68.4210 0342684 307.7376  49.3212 14.44150722479186
TechnoSat
1 42829U 17042E   25355.71345050  .00003009  00000-0  22442-3 0  9993
2 42829  97.4056 155.5340 0017627 345.3789  14.6924 15.03477541460028
AO-91
1 43017U 17073E   25355.59710096  .00008920  00000-0  42108-3 0  9997
2 43017  97.4930 221.5928 0159490 219.8173 139.1267 15.09029754438575
S-Net D
1 43186U 18014G   25355.27761927  .00005168  00000-0  28461-3 0  9991
2 43186  97.5494 256.2974 0006860 277.9622  82.0831 15.14446916431812
S-Net B
1 43187U 18014H   25355.81440066  .00005547  00000-0  30534-3 0  9995
2 43187  97.5499 256.8102 0007491 269.5340  90.5034 15.14428430431890
S-Net A
1 43188U 18014J   25355.47550848  .00005196  00000-0  28606-3 0  9995
2 43188  97.5504 256.6521 0007331 271.7895  88.2497 15.14455246431841
S-Net C
1 43189U 18014K   25355.68524762  .00005218  00000-0  28746-3 0  9995
2 43189  97.5521 256.9072 0008812 261.7517  98.2715 15.14421125430426
Ten-Koh
1 43677U 18084G   25355.50625175  .00002403  00000-0  18897-3 0  9994
2 43677  98.0748 175.4821 0008831   1.1223 359.0019 15.01868326389481
PO-101
1 43678U 18084H   25355.86105703  .00002425  00000-0  20281-3 0  9998
2 43678  98.1024 179.6909 0007616  23.4052 336.7515 14.99481771389631
QO-100
1 43700U 18090A   25355.76905046  .00000167  00000-0  00000+0 0  9992
2 43700   0.0183  60.4435 0001025 234.1578  98.6439  1.00272802 25893
MinXSS-2
1 43758U 18099A   25355.75280656  .00022802  00000-0  67314-3 0  9991
2 43758  97.4787  63.2420 0009562 178.4694 181.6580 15.34937584386802
AO-95
1 43770U 18099N   25355.66859255  .00009234  00000-0  40615-3 0  9991
2 43770  97.4657  51.8851 0008246 249.5505 110.4846 15.22068315386171
SNUSat 2
1 43782U 18099AA  25355.09437337  .00006493  00000-0  31839-3 0  9996
2 43782  97.4338  46.3577 0010741 191.3605 168.7389 15.18407604385970
SnugLite
1 43784U 18099AC  25355.39053741  .00009039  00000-0  39339-3 0  9996
2 43784  97.4152  46.7271 0003046 168.9133 191.2171 15.22459665386225
ITASat 1
1 43786U 18099AE  25355.67382606  .00005938  00000-0  31038-3 0  9996
2 43786  97.4310  45.7991 0011911 248.7385 111.2576 15.16192413385988
EAGLET 1
1 43790U 18099AJ  25355.37919599  .00003381  00000-0  20499-3 0  9994
2 43790  97.4507  44.6945 0010234 235.9317 124.0943 15.11187626385466
ESEO
1 43792U 18099AL  25355.40023336  .00002330  00000-0  17490-3 0  9995
2 43792  97.4225  35.2297 0011608 215.9876 144.0570 15.03517119385086
JO-97
1 43803U 18099AX  25355.72780213  .00013483  00000-0  50934-3 0  9998
2 43803  97.4409  53.5161 0006603 169.0489 191.0895 15.27099504386480
Suomi 100
1 43804U 18099AY  25355.71997817  .00010874  00000-0  45748-3 0  9996
2 43804  97.4469  52.1111 0010957 179.4028 180.7223 15.23511995386353
ISAT
1 43879U 18111D   25355.75615993  .00034766  00000-0  80314-3 0  9993
2 43879  97.5919 275.8194 0004298 200.0398 160.0681 15.42436496383633
UWE-4
1 43880U 18111E   25355.76204126  .00020537  00000-0  60968-3 0  9992
2 43880  97.5869 272.5389 0007362 235.2690 124.7860 15.34803521383464
Sparrow
1 43881U 18111F   25355.79201094  .00039816  00000-0  84903-3 0  9992
2 43881  97.6105 279.6671 0001806 265.2776  94.8265 15.44799367383768
Prox-1
1 44339U 19036A   25355.71028794  .00011674  00000-0  12921-2 0  9996
2 44339  23.9944 215.3478 0006470 141.9972 218.0983 14.85397086347002
Taurus 1
1 44530U 19059C   25355.82904838  .00008528  00000-0  14524-2 0  9993
2 44530  98.6227 145.1840 0009144 147.0027 213.1749 14.69281221332577
TO-108
1 44881U 19093C   25355.85751594  .00000100  00000-0  17469-4 0  9993
2 44881  97.7757  67.2855 0012684 315.2154  44.8037 14.86120219325071
FloripaSat 1
1 44885U 19093G   25355.77479266  .00004170  00000-0  32804-3 0  9991
2 44885  97.8041  84.0116 0009580 305.0830  54.9495 15.01370461326006
RS-44
1 44909U 19096E   25355.77042486  .00000017  00000-0  25849-4 0  9999
2 44909  82.5216  97.6083 0217379 198.9368 160.3559 12.79746104279657
SALSAT
1 46495U 20068K   25355.70942763  .00007224  00000-0  27977-3 0  9992
2 46495  97.8785 343.4660 0009718 194.2390 165.8575 15.26463047288253
CSS (TIANHE-1)
1 48274U 21035A   25355.80906171  .00015482  00000-0  19295-3 0  9997
2 48274  41.4687 321.6327 0007793 110.3856 249.7820 15.59540108265442
TUBIN
1 48900U 21059X   25349.78845228  .07315651  27141-5  56139-3 0  9990
2 48900  97.6553 178.8839 0007270 265.1302  94.9166 16.40417761249824
CUTE
1 49263U 21088D   25355.69763052  .00026354  00000-0  33854-3 0  9997
2 49263  97.4340  78.9503 0004592 228.4579 131.6283 15.59079778234698
TeikyoSat 4
1 49396U 21102B   25355.62243622  .00001739  00000-0  11471-3 0  9991
2 49396  97.3886  26.8879 0012232 176.7154 183.4158 15.08680846225943
Z-Sat
1 49399U 21102E   25355.81704867  .00003465  00000-0  18048-3 0  9993
2 49399  97.3566  31.4870 0018228 141.2410 219.0135 15.16511938226549
KOSEN 1
1 49402U 21102H   25355.56900683  .00006182  00000-0  25919-3 0  9998
2 49402  97.3456  36.2756 0016223 112.4782 247.8175 15.23742125226942
